Location: Vienna
(48.2082°N, 16.3738°E)
Time: 18:33:55
(UTC+01:00)

ISS - Visible Passes

Search period start: 21 March 2019 00:00
Search period end: 31 March 2019 00:00
Orbit: 406 x 411 km, 51.6° (Epoch: 21 March)

Date Brightness Start Highest point End Pass type
(mag) Time Alt. Az. Time Alt. Az. Time Alt. Az.
21 Mar -1.5 18:55:30 10° SE 18:55:41 10° SE 18:55:53 10° SE visible
21 Mar -1.1 20:28:25 10° SW 20:28:52 13° SW 20:28:52 13° SW visible
22 Mar -3.1 19:37:38 10° SSW 19:40:39 33° SE 19:40:42 33° SE visible
23 Mar -2.3 18:47:09 10° SSW 18:49:43 21° SE 18:52:18 10° E visible
23 Mar -2.9 20:22:41 10° WSW 20:25:05 45° WSW 20:25:05 45° WSW visible
24 Mar -3.9 19:31:37 10° SW 19:34:53 67° SSE 19:36:30 27° ENE visible
24 Mar -0.9 21:08:22 10° W 21:09:16 17° WNW 21:09:16 17° WNW visible
25 Mar -3.3 20:17:07 10° W 20:20:23 55° NNW 20:20:31 55° N visible
26 Mar -3.6 19:25:54 10° WSW 19:29:12 72° NNW 19:31:39 17° ENE visible
26 Mar -1.4 21:02:51 10° WNW 21:04:24 23° WNW 21:04:24 23° WNW visible
27 Mar -2.9 20:11:36 10° W 20:14:48 45° N 20:15:26 39° NNE visible
28 Mar -3.1 19:20:19 10° W 19:23:33 50° N 19:26:24 13° ENE visible
28 Mar -1.8 20:57:13 10° WNW 20:59:07 29° NW 20:59:07 29° NW visible
29 Mar -3.0 20:05:59 10° WNW 20:09:11 44° N 20:10:01 35° NE visible
29 Mar -0.4 21:42:38 10° WNW 21:42:45 11° WNW 21:42:45 11° WNW visible
30 Mar -2.9 19:14:43 10° WNW 19:17:54 44° N 19:20:53 11° ENE visible
30 Mar -2.3 20:51:27 10° WNW 20:53:37 37° NW 20:53:37 37° NW visible
